Data supplied by UK-AIR on 24/3/2020
All Data GMT hour ending 
Status: R =Ratified P=Provisional,P*=As supplied
,,Fort William,,,,,,,,,,,,,,,,,,,,,,,
Date,time,"Nitric oxide",status,unit,"Nitrogen dioxide",status,unit,"Nitrogen oxides as nitrogen dioxide",status,unit,"Ozone",status,unit
 
01-01-2019,01:00,0.27673,R,ugm-3,0.62640,R,ugm-3,1.05071,R,ugm-3,82.15632,R,ugm-3
01-01-2019,02:00,0.38050,R,ugm-3,0.46728,R,ugm-3,1.05071,R,ugm-3,80.36019,R,ugm-3
01-01-2019,03:00,0.34591,R,ugm-3,3.19963,R,ugm-3,3.73002,R,ugm-3,67.95359,R,ugm-3
01-01-2019,04:00,0.83018,R,ugm-3,8.28852,R,ugm-3,9.56145,R,ugm-3,57.97509,R,ugm-3
01-01-2019,05:00,0.34591,R,ugm-3,4.35541,R,ugm-3,4.88580,R,ugm-3,55.08132,R,ugm-3
01-01-2019,06:00,0.24214,R,ugm-3,3.46382,R,ugm-3,3.83509,R,ugm-3,58.47401,R,ugm-3
01-01-2019,07:00,0.31132,R,ugm-3,6.14211,R,ugm-3,6.61947,R,ugm-3,50.19186,R,ugm-3
01-01-2019,08:00,0.41509,R,ugm-3,9.39780,R,ugm-3,10.03427,R,ugm-3,42.85766,R,ugm-3
01-01-2019,09:00,0.76100,R,ugm-3,16.32745,R,ugm-3,17.49430,R,ugm-3,29.28690,R,ugm-3
01-01-2019,10:00,4.04715,R,ugm-3,28.88813,R,ugm-3,35.09367,R,ugm-3,14.41893,R,ugm-3
01-01-2019,11:00,3.21696,R,ugm-3,16.50185,R,ugm-3,21.43446,R,ugm-3,20.30625,R,ugm-3
01-01-2019,12:00,2.76728,R,ugm-3,9.99400,R,ugm-3,14.23710,R,ugm-3,29.58625,R,ugm-3
01-01-2019,13:00,0.69182,R,ugm-3,4.14023,R,ugm-3,5.20101,R,ugm-3,56.67788,R,ugm-3
01-01-2019,14:00,0.34591,R,ugm-3,3.56738,R,ugm-3,4.09776,R,ugm-3,61.41767,R,ugm-3
01-01-2019,15:00,0.51887,R,ugm-3,5.50867,R,ugm-3,6.30425,R,ugm-3,54.78197,R,ugm-3
01-01-2019,16:00,0.51887,R,ugm-3,7.55755,R,ugm-3,8.35313,R,ugm-3,54.78197,R,ugm-3
01-01-2019,17:00,0.34591,R,ugm-3,5.45865,R,ugm-3,5.98904,R,ugm-3,57.92519,R,ugm-3
01-01-2019,18:00,0.34591,R,ugm-3,6.92964,R,ugm-3,7.46003,R,ugm-3,54.53250,R,ugm-3
01-01-2019,19:00,0.31132,R,ugm-3,9.18917,R,ugm-3,9.66652,R,ugm-3,52.03788,R,ugm-3
01-01-2019,20:00,1.31446,R,ugm-3,16.79221,R,ugm-3,18.80768,R,ugm-3,40.16346,R,ugm-3
01-01-2019,21:00,0.96855,R,ugm-3,20.57979,R,ugm-3,22.06488,R,ugm-3,33.07873,R,ugm-3
01-01-2019,22:00,1.00314,R,ugm-3,15.22068,R,ugm-3,16.75880,R,ugm-3,30.38453,R,ugm-3
01-01-2019,23:00,0.38050,R,ugm-3,8.24253,R,ugm-3,8.82595,R,ugm-3,38.76647,R,ugm-3
01-01-2019,24:00,0.41509,R,ugm-3,4.98483,R,ugm-3,5.62129,R,ugm-3,42.95744,R,ugm-3
02-01-2019,01:00,0.41502,R,ugm-3,5.52509,R,ugm-3,6.16143,R,ugm-3,32.59643,R,ugm-3
02-01-2019,02:00,0.87614,R,ugm-3,11.67963,R,ugm-3,13.02303,R,ugm-3,19.15872,R,ugm-3
02-01-2019,03:00,0.41502,R,ugm-3,6.66285,R,ugm-3,7.29920,R,ugm-3,22.55141,R,ugm-3
02-01-2019,04:00,0.41502,R,ugm-3,5.40256,R,ugm-3,6.03891,R,ugm-3,21.65335,R,ugm-3
02-01-2019,05:00,0.65711,R,ugm-3,8.12958,R,ugm-3,9.13713,R,ugm-3,13.07184,R,ugm-3
02-01-2019,06:00,0.93378,R,ugm-3,9.12317,R,ugm-3,10.55496,R,ugm-3,14.71829,R,ugm-3
02-01-2019,07:00,1.34880,R,ugm-3,12.26771,R,ugm-3,14.33584,R,ugm-3,8.08259,R,ugm-3
02-01-2019,08:00,2.76677,R,ugm-3,14.66208,R,ugm-3,18.90440,R,ugm-3,16.11528,R,ugm-3
02-01-2019,09:00,12.07002,R,ugm-3,23.13509,R,ugm-3,41.64219,R,ugm-3,1.69635,R,ugm-3
02-01-2019,10:00,23.58668,R,ugm-3,22.33287,R,ugm-3,58.49861,R,ugm-3,2.54452,R,ugm-3
02-01-2019,11:00,6.57107,R,ugm-3,18.33361,R,ugm-3,28.40911,R,ugm-3,14.86797,R,ugm-3
02-01-2019,12:00,3.38929,R,ugm-3,14.86283,R,ugm-3,20.05967,R,ugm-3,21.45378,R,ugm-3
02-01-2019,13:00,4.49600,R,ugm-3,19.41486,R,ugm-3,26.30862,R,ugm-3,19.15872,R,ugm-3
02-01-2019,14:00,3.49304,R,ugm-3,19.37733,R,ugm-3,24.73326,R,ugm-3,17.81162,R,ugm-3
02-01-2019,15:00,1.97132,R,ugm-3,17.61465,R,ugm-3,20.63730,R,ugm-3,20.20646,R,ugm-3
02-01-2019,16:00,7.19359,R,ugm-3,30.82222,R,ugm-3,41.85224,R,ugm-3,10.47743,R,ugm-3
02-01-2019,17:00,10.65205,R,ugm-3,36.38935,R,ugm-3,52.72227,R,ugm-3,6.63570,R,ugm-3
02-01-2019,18:00,4.25390,R,ugm-3,27.76792,R,ugm-3,34.29048,R,ugm-3,8.08259,R,ugm-3
02-01-2019,19:00,7.60861,R,ugm-3,31.34114,R,ugm-3,43.00751,R,ugm-3,3.79183,R,ugm-3
02-01-2019,20:00,7.19359,R,ugm-3,29.77197,R,ugm-3,40.80199,R,ugm-3,4.24086,R,ugm-3
02-01-2019,21:00,5.60270,R,ugm-3,27.43269,R,ugm-3,36.02338,R,ugm-3,3.69205,R,ugm-3
02-01-2019,22:00,10.06411,R,ugm-3,29.36150,R,ugm-3,44.79292,R,ugm-3,2.44473,R,ugm-3
02-01-2019,23:00,8.02362,R,ugm-3,26.97642,R,ugm-3,39.27914,R,ugm-3,5.78753,R,ugm-3
02-01-2019,24:00,1.03754,R,ugm-3,12.74497,R,ugm-3,14.33584,R,ugm-3,13.92001,R,ugm-3
03-01-2019,01:00,1.47534,R,ugm-3,12.50476,R,ugm-3,14.76691,R,ugm-3,12.50639,R,ugm-3
03-01-2019,02:00,1.24481,R,ugm-3,11.21357,R,ugm-3,13.12225,R,ugm-3,10.37764,R,ugm-3
03-01-2019,03:00,1.41771,R,ugm-3,12.26069,R,ugm-3,14.43448,R,ugm-3,8.48173,R,ugm-3
03-01-2019,04:00,1.21024,R,ugm-3,12.52632,R,ugm-3,14.38199,R,ugm-3,7.68345,R,ugm-3
03-01-2019,05:00,13.10513,R,ugm-3,23.83906,R,ugm-3,43.93330,R,ugm-3,7.13463,R,ugm-3
03-01-2019,06:00,45.71234,R,ugm-3,41.55285,R,ugm-3,111.64413,R,ugm-3,9.13033,R,ugm-3
03-01-2019,07:00,1.83264,R,ugm-3,11.93940,R,ugm-3,14.74941,R,ugm-3,12.62280,R,ugm-3
03-01-2019,08:00,6.05118,R,ugm-3,20.27297,R,ugm-3,29.55131,R,ugm-3,3.04344,R,ugm-3
03-01-2019,09:00,11.54911,R,ugm-3,24.17784,R,ugm-3,41.88623,R,ugm-3,3.14323,R,ugm-3
03-01-2019,10:00,18.56848,R,ugm-3,27.74446,R,ugm-3,56.21573,R,ugm-3,1.24731,R,ugm-3
03-01-2019,11:00,19.01799,R,ugm-3,24.58823,R,ugm-3,53.74875,R,ugm-3,2.14538,R,ugm-3
03-01-2019,12:00,28.63072,R,ugm-3,26.22549,R,ugm-3,70.12532,R,ugm-3,1.99570,R,ugm-3
03-01-2019,13:00,27.38591,R,ugm-3,29.60387,R,ugm-3,71.59501,R,ugm-3,2.84387,R,ugm-3
03-01-2019,14:00,13.62380,R,ugm-3,30.86463,R,ugm-3,51.75416,R,ugm-3,9.42968,R,ugm-3
03-01-2019,15:00,10.02767,R,ugm-3,31.91706,R,ugm-3,47.29260,R,ugm-3,14.96775,R,ugm-3
03-01-2019,16:00,3.56155,R,ugm-3,19.41882,R,ugm-3,24.87979,R,ugm-3,32.08088,R,ugm-3
03-01-2019,17:00,4.28769,R,ugm-3,24.76157,R,ugm-3,31.33594,R,ugm-3,25.49507,R,ugm-3
03-01-2019,18:00,15.24897,R,ugm-3,29.63247,R,ugm-3,53.01390,R,ugm-3,5.73764,R,ugm-3
03-01-2019,19:00,10.96128,R,ugm-3,29.12082,R,ugm-3,45.92788,R,ugm-3,13.47098,R,ugm-3
03-01-2019,20:00,2.07469,R,ugm-3,16.92214,R,ugm-3,20.10329,R,ugm-3,33.22841,R,ugm-3
03-01-2019,21:00,1.14108,R,ugm-3,10.69027,R,ugm-3,12.43990,R,ugm-3,40.31314,R,ugm-3
03-01-2019,22:00,4.42601,R,ugm-3,13.05440,R,ugm-3,19.84085,R,ugm-3,40.21336,R,ugm-3
03-01-2019,23:00,0.65699,R,ugm-3,6.97097,R,ugm-3,7.97833,R,ugm-3,47.89680,R,ugm-3
03-01-2019,24:00,0.55325,R,ugm-3,9.22958,R,ugm-3,10.07789,R,ugm-3,42.70798,R,ugm-3
04-01-2019,01:00,0.27657,R,ugm-3,2.65392,R,ugm-3,3.07800,R,ugm-3,57.67573,R,ugm-3
04-01-2019,02:00,0.50705,R,ugm-3,1.88080,R,ugm-3,2.65827,R,ugm-3,56.21222,R,ugm-3
04-01-2019,03:00,0.27657,R,ugm-3,2.04182,R,ugm-3,2.46589,R,ugm-3,53.38498,R,ugm-3
04-01-2019,04:00,0.41486,R,ugm-3,1.56745,R,ugm-3,2.20356,R,ugm-3,55.72992,R,ugm-3
04-01-2019,05:00,0.27657,R,ugm-3,2.35661,R,ugm-3,2.78069,R,ugm-3,55.38068,R,ugm-3
04-01-2019,06:00,1.24458,R,ugm-3,4.44003,R,ugm-3,6.34836,R,ugm-3,52.68648,R,ugm-3
04-01-2019,07:00,0.62229,R,ugm-3,2.82337,R,ugm-3,3.77754,R,ugm-3,53.08562,R,ugm-3
04-01-2019,08:00,1.00258,R,ugm-3,4.86356,R,ugm-3,6.40083,R,ugm-3,49.29379,R,ugm-3
04-01-2019,09:00,1.93602,R,ugm-3,11.09231,R,ugm-3,14.06084,R,ugm-3,43.75572,R,ugm-3
04-01-2019,10:00,5.80806,R,ugm-3,17.69460,R,ugm-3,26.60016,R,ugm-3,38.56690,R,ugm-3
04-01-2019,11:00,5.56605,R,ugm-3,17.48854,R,ugm-3,26.02304,R,ugm-3,35.32389,R,ugm-3
04-01-2019,12:00,2.69660,R,ugm-3,12.60187,R,ugm-3,16.73659,R,ugm-3,41.06153,R,ugm-3
04-01-2019,13:00,4.14861,R,ugm-3,14.99247,R,ugm-3,21.35358,R,ugm-3,45.60175,R,ugm-3
04-01-2019,14:00,2.00516,R,ugm-3,14.60644,R,ugm-3,17.68098,R,ugm-3,49.69293,R,ugm-3
04-01-2019,15:00,1.34830,R,ugm-3,11.36388,R,ugm-3,13.43125,R,ugm-3,54.38283,R,ugm-3
04-01-2019,16:00,2.14345,R,ugm-3,16.70290,R,ugm-3,19.98947,R,ugm-3,51.18971,R,ugm-3
04-01-2019,17:00,0.96801,R,ugm-3,9.21876,R,ugm-3,10.70302,R,ugm-3,62.26584,R,ugm-3
04-01-2019,18:00,0.96801,R,ugm-3,8.32685,R,ugm-3,9.81111,R,ugm-3,63.36348,R,ugm-3
04-01-2019,19:00,0.76058,R,ugm-3,6.75613,R,ugm-3,7.92234,R,ugm-3,64.36133,R,ugm-3
04-01-2019,20:00,1.03715,R,ugm-3,7.48631,R,ugm-3,9.07658,R,ugm-3,62.76477,R,ugm-3
04-01-2019,21:00,0.44943,R,ugm-3,5.76417,R,ugm-3,6.45329,R,ugm-3,63.56305,R,ugm-3
04-01-2019,22:00,0.44943,R,ugm-3,5.34445,R,ugm-3,6.03357,R,ugm-3,63.36348,R,ugm-3
04-01-2019,23:00,0.38029,R,ugm-3,4.08636,R,ugm-3,4.66946,R,ugm-3,63.86240,R,ugm-3
04-01-2019,24:00,0.34572,R,ugm-3,2.14566,R,ugm-3,2.67576,R,ugm-3,66.00778,R,ugm-3
05-01-2019,01:00,0.27652,R,ugm-3,1.67371,R,ugm-3,2.09771,R,ugm-3,65.92462,R,ugm-3
05-01-2019,02:00,0.41479,R,ugm-3,1.88125,R,ugm-3,2.51724,R,ugm-3,61.20147,R,ugm-3
05-01-2019,03:00,0.24196,R,ugm-3,1.56938,R,ugm-3,1.94038,R,ugm-3,62.31573,R,ugm-3
05-01-2019,04:00,0.27652,R,ugm-3,1.93592,R,ugm-3,2.35992,R,ugm-3,59.72132,R,ugm-3
05-01-2019,05:00,0.31109,R,ugm-3,1.98781,R,ugm-3,2.46480,R,ugm-3,62.96434,R,ugm-3
05-01-2019,06:00,0.24196,R,ugm-3,1.98892,R,ugm-3,2.35992,R,ugm-3,65.50885,R,ugm-3
05-01-2019,07:00,0.34565,R,ugm-3,3.24587,R,ugm-3,3.77587,R,ugm-3,64.36133,R,ugm-3
05-01-2019,08:00,0.65674,R,ugm-3,4.97147,R,ugm-3,5.97846,R,ugm-3,61.41767,R,ugm-3
05-01-2019,09:00,0.86413,R,ugm-3,6.59385,R,ugm-3,7.91883,R,ugm-3,59.02283,R,ugm-3
05-01-2019,10:00,0.62218,R,ugm-3,6.65019,R,ugm-3,7.60418,R,ugm-3,57.52605,R,ugm-3
05-01-2019,11:00,1.10609,R,ugm-3,6.17041,R,ugm-3,7.86639,R,ugm-3,57.37638,R,ugm-3
05-01-2019,12:00,1.55544,R,ugm-3,8.68041,R,ugm-3,11.06539,R,ugm-3,55.77982,R,ugm-3
05-01-2019,13:00,1.93566,R,ugm-3,12.81725,R,ugm-3,15.78522,R,ugm-3,50.84046,R,ugm-3
05-01-2019,14:00,1.86653,R,ugm-3,12.60859,R,ugm-3,15.47056,R,ugm-3,50.04218,R,ugm-3
05-01-2019,15:00,1.76283,R,ugm-3,8.41486,R,ugm-3,11.11783,R,ugm-3,53.68433,R,ugm-3
05-01-2019,16:00,1.34805,R,ugm-3,7.58246,R,ugm-3,9.64944,R,ugm-3,52.83616,R,ugm-3
05-01-2019,17:00,0.89870,R,ugm-3,6.01642,R,ugm-3,7.39441,R,ugm-3,55.58025,R,ugm-3
05-01-2019,18:00,0.76044,R,ugm-3,6.12353,R,ugm-3,7.28952,R,ugm-3,55.38068,R,ugm-3
05-01-2019,19:00,0.58761,R,ugm-3,6.33609,R,ugm-3,7.23708,R,ugm-3,55.92949,R,ugm-3
05-01-2019,20:00,0.69131,R,ugm-3,5.80999,R,ugm-3,6.86998,R,ugm-3,59.42197,R,ugm-3
05-01-2019,21:00,0.62218,R,ugm-3,6.17820,R,ugm-3,7.13219,R,ugm-3,55.72992,R,ugm-3
05-01-2019,22:00,0.62218,R,ugm-3,6.91240,R,ugm-3,7.86639,R,ugm-3,52.73637,R,ugm-3
05-01-2019,23:00,0.55305,R,ugm-3,6.07443,R,ugm-3,6.92242,R,ugm-3,48.54540,R,ugm-3
05-01-2019,24:00,0.44935,R,ugm-3,4.29305,R,ugm-3,4.98205,R,ugm-3,50.94024,R,ugm-3
06-01-2019,01:00,0.27647,R,ugm-3,3.00082,R,ugm-3,3.42473,R,ugm-3,53.68433,R,ugm-3
06-01-2019,02:00,0.55294,R,ugm-3,2.66427,R,ugm-3,3.51210,R,ugm-3,49.49336,R,ugm-3
06-01-2019,03:00,0.31103,R,ugm-3,2.30132,R,ugm-3,2.77823,R,ugm-3,49.64304,R,ugm-3
06-01-2019,04:00,0.38015,R,ugm-3,2.24776,R,ugm-3,2.83065,R,ugm-3,47.74712,R,ugm-3
06-01-2019,05:00,0.31103,R,ugm-3,2.98277,R,ugm-3,3.45968,R,ugm-3,46.44992,R,ugm-3
06-01-2019,06:00,0.38015,R,ugm-3,2.87679,R,ugm-3,3.45968,R,ugm-3,45.40218,R,ugm-3
06-01-2019,07:00,0.34559,R,ugm-3,3.76849,R,ugm-3,4.29839,R,ugm-3,42.85766,R,ugm-3
06-01-2019,08:00,0.44927,R,ugm-3,7.48856,R,ugm-3,8.17742,R,ugm-3,30.93335,R,ugm-3
06-01-2019,09:00,0.55294,R,ugm-3,4.55136,R,ugm-3,5.39920,R,ugm-3,30.93335,R,ugm-3
06-01-2019,10:00,0.89853,R,ugm-3,7.48115,R,ugm-3,8.85888,R,ugm-3,20.75528,R,ugm-3
06-01-2019,11:00,1.31324,R,ugm-3,11.77269,R,ugm-3,13.78630,R,ugm-3,21.10453,R,ugm-3
06-01-2019,12:00,1.07133,R,ugm-3,9.05088,R,ugm-3,10.69355,R,ugm-3,17.86152,R,ugm-3
06-01-2019,13:00,1.20956,R,ugm-3,8.57682,R,ugm-3,10.43146,R,ugm-3,15.36689,R,ugm-3
06-01-2019,14:00,2.31545,R,ugm-3,14.95374,R,ugm-3,18.50404,R,ugm-3,12.87227,R,ugm-3
06-01-2019,15:00,1.55515,R,ugm-3,11.40177,R,ugm-3,13.78630,R,ugm-3,17.76173,R,ugm-3
06-01-2019,16:00,0.62206,R,ugm-3,7.74781,R,ugm-3,8.70162,R,ugm-3,33.57765,R,ugm-3
06-01-2019,17:00,0.58750,R,ugm-3,14.61532,R,ugm-3,15.51614,R,ugm-3,29.78582,R,ugm-3
06-01-2019,18:00,0.58750,R,ugm-3,11.99435,R,ugm-3,12.89517,R,ugm-3,32.38023,R,ugm-3
06-01-2019,19:00,0.69118,R,ugm-3,12.20231,R,ugm-3,13.26211,R,ugm-3,32.08088,R,ugm-3
06-01-2019,20:00,0.62206,R,ugm-3,11.36474,R,ugm-3,12.31856,R,ugm-3,31.78152,R,ugm-3
06-01-2019,21:00,1.48603,R,ugm-3,23.04001,R,ugm-3,25.31856,R,ugm-3,18.41033,R,ugm-3
06-01-2019,22:00,0.89853,R,ugm-3,13.66663,R,ugm-3,15.04436,R,ugm-3,26.44303,R,ugm-3
06-01-2019,23:00,0.69118,R,ugm-3,5.23054,R,ugm-3,6.29033,R,ugm-3,34.22626,R,ugm-3
06-01-2019,24:00,0.79486,R,ugm-3,3.65624,R,ugm-3,4.87500,R,ugm-3,35.77292,R,ugm-3
07-01-2019,01:00,0.32249,R,ugm-3,2.16026,R,ugm-3,2.65474,R,ugm-3,42.30884,R,ugm-3
07-01-2019,02:00,0.46070,R,ugm-3,1.31959,R,ugm-3,2.02599,R,ugm-3,59.07272,R,ugm-3
07-01-2019,03:00,0.27642,R,ugm-3,0.72888,R,ugm-3,1.15272,R,ugm-3,69.50025,R,ugm-3
07-01-2019,04:00,0.41463,R,ugm-3,0.93613,R,ugm-3,1.57189,R,ugm-3,66.85595,R,ugm-3
07-01-2019,05:00,0.34553,R,ugm-3,0.78011,R,ugm-3,1.30990,R,ugm-3,66.90584,R,ugm-3
07-01-2019,06:00,0.48374,R,ugm-3,0.93496,R,ugm-3,1.67668,R,ugm-3,67.25509,R,ugm-3
07-01-2019,07:00,0.44918,R,ugm-3,0.83075,R,ugm-3,1.51949,R,ugm-3,67.35488,R,ugm-3
07-01-2019,08:00,1.38210,R,ugm-3,4.16835,R,ugm-3,6.28754,R,ugm-3,69.05122,R,ugm-3
07-01-2019,09:00,1.00202,R,ugm-3,3.59841,R,ugm-3,5.13483,R,ugm-3,79.32908,R,ugm-3
07-01-2019,10:00,0.96747,R,ugm-3,4.12296,R,ugm-3,5.60639,R,ugm-3,80.67617,R,ugm-3
07-01-2019,11:00,1.79673,R,ugm-3,4.68531,R,ugm-3,7.44026,R,ugm-3,79.47875,R,ugm-3
07-01-2019,12:00,1.45121,R,ugm-3,4.32437,R,ugm-3,6.54952,R,ugm-3,79.37897,R,ugm-3
07-01-2019,13:00,1.20934,R,ugm-3,3.59491,R,ugm-3,5.44920,R,ugm-3,79.32908,R,ugm-3
07-01-2019,14:00,1.27844,R,ugm-3,3.06978,R,ugm-3,5.03003,R,ugm-3,79.37897,R,ugm-3
07-01-2019,15:00,0.93292,R,ugm-3,1.92290,R,ugm-3,3.35336,R,ugm-3,80.77596,R,ugm-3
07-01-2019,16:00,0.79471,R,ugm-3,1.71565,R,ugm-3,2.93419,R,ugm-3,81.12521,R,ugm-3
07-01-2019,17:00,0.89837,R,ugm-3,2.65703,R,ugm-3,4.03451,R,ugm-3,79.42886,R,ugm-3
07-01-2019,18:00,1.48576,R,ugm-3,3.64264,R,ugm-3,5.92077,R,ugm-3,78.03187,R,ugm-3
07-01-2019,19:00,2.52233,R,ugm-3,5.66858,R,ugm-3,9.53610,R,ugm-3,76.93424,R,ugm-3
07-01-2019,20:00,3.10973,R,ugm-3,6.86377,R,ugm-3,11.63195,R,ugm-3,75.18800,R,ugm-3
07-01-2019,21:00,0.51829,R,ugm-3,1.61553,R,ugm-3,2.41022,R,ugm-3,79.67832,R,ugm-3
07-01-2019,22:00,0.44918,R,ugm-3,1.19753,R,ugm-3,1.88626,R,ugm-3,77.28348,R,ugm-3
07-01-2019,23:00,0.27642,R,ugm-3,0.36211,R,ugm-3,0.78594,R,ugm-3,80.07746,R,ugm-3
07-01-2019,24:00,0.24187,R,ugm-3,0.72946,R,ugm-3,1.10032,R,ugm-3,78.58069,R,ugm-3
08-01-2019,01:00,0.09212,R,ugm-3,1.04587,R,ugm-3,1.18712,R,ugm-3,74.30656,R,ugm-3
08-01-2019,02:00,0.27637,R,ugm-3,0.41421,R,ugm-3,0.83797,R,ugm-3,74.43961,R,ugm-3
08-01-2019,03:00,0.06909,R,ugm-3,0.47016,R,ugm-3,0.57610,R,ugm-3,74.98843,R,ugm-3
08-01-2019,04:00,0.20728,R,ugm-3,0.72964,R,ugm-3,1.04746,R,ugm-3,72.89294,R,ugm-3
08-01-2019,05:00,0.17273,R,ugm-3,1.30634,R,ugm-3,1.57119,R,ugm-3,73.14241,R,ugm-3
08-01-2019,06:00,0.17273,R,ugm-3,1.35871,R,ugm-3,1.62356,R,ugm-3,69.64993,R,ugm-3
08-01-2019,07:00,0.38001,R,ugm-3,3.71191,R,ugm-3,4.29458,R,ugm-3,67.40477,R,ugm-3
08-01-2019,08:00,2.93642,R,ugm-3,21.68404,R,ugm-3,26.18648,R,ugm-3,43.10712,R,ugm-3
08-01-2019,09:00,6.94377,R,ugm-3,41.14991,R,ugm-3,51.79687,R,ugm-3,25.59485,R,ugm-3
08-01-2019,10:00,22.21315,R,ugm-3,45.12825,R,ugm-3,79.18793,R,ugm-3,13.92001,R,ugm-3
08-01-2019,11:00,32.36970,R,ugm-3,53.01817,R,ugm-3,102.65102,R,ugm-3,7.83312,R,ugm-3
08-01-2019,12:00,22.07496,R,ugm-3,45.65436,R,ugm-3,79.50217,R,ugm-3,13.22151,R,ugm-3
08-01-2019,13:00,18.10216,R,ugm-3,41.32369,R,ugm-3,69.07995,R,ugm-3,22.00259,R,ugm-3
08-01-2019,14:00,4.83645,R,ugm-3,19.81815,R,ugm-3,27.23395,R,ugm-3,49.59315,R,ugm-3
08-01-2019,15:00,3.52370,R,ugm-3,22.98321,R,ugm-3,28.38615,R,ugm-3,45.30239,R,ugm-3
08-01-2019,16:00,2.34914,R,ugm-3,16.92825,R,ugm-3,20.53020,R,ugm-3,54.28304,R,ugm-3
08-01-2019,17:00,11.02021,R,ugm-3,45.63591,R,ugm-3,62.53332,R,ugm-3,25.59485,R,ugm-3
08-01-2019,18:00,6.90922,R,ugm-3,43.50729,R,ugm-3,54.10128,R,ugm-3,19.25851,R,ugm-3
08-01-2019,19:00,26.18595,R,ugm-3,59.40979,R,ugm-3,99.56101,R,ugm-3,2.84387,R,ugm-3
08-01-2019,20:00,25.21866,R,ugm-3,53.61310,R,ugm-3,92.28117,R,ugm-3,4.39054,R,ugm-3
08-01-2019,21:00,9.25836,R,ugm-3,39.43397,R,ugm-3,53.62992,R,ugm-3,16.56431,R,ugm-3
08-01-2019,22:00,2.07277,R,ugm-3,27.40762,R,ugm-3,30.58581,R,ugm-3,25.44518,R,ugm-3
08-01-2019,23:00,5.66556,R,ugm-3,36.92978,R,ugm-3,45.61686,R,ugm-3,13.12173,R,ugm-3
08-01-2019,24:00,8.49834,R,ugm-3,41.12304,R,ugm-3,54.15365,R,ugm-3,5.08904,R,ugm-3
09-01-2019,01:00,5.43425,R,ugm-3,29.28964,R,ugm-3,37.62203,R,ugm-3,7.31757,R,ugm-3
09-01-2019,02:00,1.01316,R,ugm-3,15.12863,R,ugm-3,16.68212,R,ugm-3,13.77033,R,ugm-3
09-01-2019,03:00,0.75987,R,ugm-3,7.78669,R,ugm-3,8.95181,R,ugm-3,22.65120,R,ugm-3
09-01-2019,04:00,1.00165,R,ugm-3,10.03345,R,ugm-3,11.56930,R,ugm-3,11.77463,R,ugm-3
09-01-2019,05:00,1.31251,R,ugm-3,9.87091,R,ugm-3,11.88340,R,ugm-3,8.68130,R,ugm-3
09-01-2019,06:00,1.86514,R,ugm-3,11.37929,R,ugm-3,14.23913,R,ugm-3,8.53162,R,ugm-3
09-01-2019,07:00,14.12674,R,ugm-3,20.63792,R,ugm-3,42.29861,R,ugm-3,3.59226,R,ugm-3
09-01-2019,08:00,36.09398,R,ugm-3,24.96120,R,ugm-3,80.30453,R,ugm-3,0.44903,R,ugm-3
09-01-2019,09:00,74.91660,R,ugm-3,31.44707,R,ugm-3,146.31758,R,ugm-3,0.39914,R,ugm-3
09-01-2019,10:00,61.89513,R,ugm-3,30.10668,R,ugm-3,125.01123,R,ugm-3,1.04774,R,ugm-3
09-01-2019,11:00,39.27163,R,ugm-3,24.64330,R,ugm-3,84.85896,R,ugm-3,1.84602,R,ugm-3
09-01-2019,12:00,19.06591,R,ugm-3,23.95337,R,ugm-3,53.18736,R,ugm-3,3.99140,R,ugm-3
09-01-2019,13:00,6.73524,R,ugm-3,20.92558,R,ugm-3,31.25281,R,ugm-3,11.32560,R,ugm-3
09-01-2019,14:00,8.53130,R,ugm-3,25.39592,R,ugm-3,38.47708,R,ugm-3,11.92431,R,ugm-3
09-01-2019,15:00,9.49842,R,ugm-3,35.53469,R,ugm-3,50.09872,R,ugm-3,6.53592,R,ugm-3
09-01-2019,16:00,6.56254,R,ugm-3,33.44023,R,ugm-3,43.50265,R,ugm-3,5.63785,R,ugm-3
09-01-2019,17:00,5.80267,R,ugm-3,32.04021,R,ugm-3,40.93751,R,ugm-3,5.63785,R,ugm-3
09-01-2019,18:00,8.87670,R,ugm-3,30.78184,R,ugm-3,44.39260,R,ugm-3,19.15872,R,ugm-3
09-01-2019,19:00,5.73359,R,ugm-3,16.86000,R,ugm-3,25.65138,R,ugm-3,39.76432,R,ugm-3
09-01-2019,20:00,9.70565,R,ugm-3,25.11342,R,ugm-3,39.99522,R,ugm-3,35.62325,R,ugm-3
09-01-2019,21:00,1.76152,R,ugm-3,11.38112,R,ugm-3,14.08209,R,ugm-3,46.99874,R,ugm-3
09-01-2019,22:00,1.10527,R,ugm-3,7.88528,R,ugm-3,9.58001,R,ugm-3,49.59315,R,ugm-3
09-01-2019,23:00,0.72533,R,ugm-3,8.99134,R,ugm-3,10.10350,R,ugm-3,44.10497,R,ugm-3
09-01-2019,24:00,0.55264,R,ugm-3,9.36084,R,ugm-3,10.20820,R,ugm-3,39.36518,R,ugm-3
10-01-2019,01:00,0.50649,R,ugm-3,13.87483,R,ugm-3,14.65144,R,ugm-3,24.01492,R,ugm-3
10-01-2019,02:00,0.96693,R,ugm-3,11.96532,R,ugm-3,13.44792,R,ugm-3,21.42051,R,ugm-3
10-01-2019,03:00,0.41440,R,ugm-3,2.24256,R,ugm-3,2.87796,R,ugm-3,50.09207,R,ugm-3
10-01-2019,04:00,0.37987,R,ugm-3,1.92922,R,ugm-3,2.51168,R,ugm-3,55.23100,R,ugm-3
10-01-2019,05:00,0.65613,R,ugm-3,2.76146,R,ugm-3,3.76751,R,ugm-3,52.08777,R,ugm-3
10-01-2019,06:00,0.72520,R,ugm-3,4.01605,R,ugm-3,5.12800,R,ugm-3,51.23960,R,ugm-3
10-01-2019,07:00,0.82880,R,ugm-3,5.89793,R,ugm-3,7.16874,R,ugm-3,48.79487,R,ugm-3
10-01-2019,08:00,1.41587,R,ugm-3,8.92227,R,ugm-3,11.09323,R,ugm-3,44.85336,R,ugm-3
10-01-2019,09:00,2.79720,R,ugm-3,17.58353,R,ugm-3,21.87250,R,ugm-3,42.80777,R,ugm-3
10-01-2019,10:00,2.10653,R,ugm-3,20.21233,R,ugm-3,23.44230,R,ugm-3,39.41508,R,ugm-3
10-01-2019,11:00,2.07200,R,ugm-3,16.44544,R,ugm-3,19.62246,R,ugm-3,51.28949,R,ugm-3
10-01-2019,12:00,3.24613,R,ugm-3,22.65109,R,ugm-3,27.62842,R,ugm-3,43.40648,R,ugm-3
10-01-2019,13:00,1.76120,R,ugm-3,9.43930,R,ugm-3,12.13976,R,ugm-3,71.44606,R,ugm-3
10-01-2019,14:00,1.55400,R,ugm-3,8.03022,R,ugm-3,10.41299,R,ugm-3,75.78671,R,ugm-3
10-01-2019,15:00,0.69067,R,ugm-3,2.55153,R,ugm-3,3.61053,R,ugm-3,80.72607,R,ugm-3
10-01-2019,16:00,1.34680,R,ugm-3,6.62115,R,ugm-3,8.68621,R,ugm-3,77.23359,R,ugm-3
10-01-2019,17:00,0.62160,R,ugm-3,5.06445,R,ugm-3,6.01755,R,ugm-3,76.23574,R,ugm-3
10-01-2019,18:00,0.62160,R,ugm-3,4.17490,R,ugm-3,5.12800,R,ugm-3,78.38112,R,ugm-3
10-01-2019,19:00,0.86333,R,ugm-3,8.61829,R,ugm-3,9.94205,R,ugm-3,71.79531,R,ugm-3
10-01-2019,20:00,1.62306,R,ugm-3,9.23249,R,ugm-3,11.72115,R,ugm-3,68.90154,R,ugm-3
10-01-2019,21:00,7.14839,R,ugm-3,9.02803,R,ugm-3,19.98874,R,ugm-3,68.30283,R,ugm-3
10-01-2019,22:00,0.24173,R,ugm-3,3.76315,R,ugm-3,4.13380,R,ugm-3,75.58714,R,ugm-3
10-01-2019,23:00,11.77585,R,ugm-3,7.27000,R,ugm-3,25.32605,R,ugm-3,69.45036,R,ugm-3
10-01-2019,24:00,0.37987,R,ugm-3,1.30130,R,ugm-3,1.88376,R,ugm-3,79.07961,R,ugm-3
11-01-2019,01:00,0.23018,R,ugm-3,0.55366,R,ugm-3,0.90659,R,ugm-3,83.08764,R,ugm-3
11-01-2019,02:00,0.32225,R,ugm-3,0.34274,R,ugm-3,0.83686,R,ugm-3,82.68850,R,ugm-3
11-01-2019,03:00,0.24169,R,ugm-3,0.41397,R,ugm-3,0.78455,R,ugm-3,81.97338,R,ugm-3
11-01-2019,04:00,0.27622,R,ugm-3,0.72715,R,ugm-3,1.15067,R,ugm-3,80.62628,R,ugm-3
11-01-2019,05:00,0.31074,R,ugm-3,0.62191,R,ugm-3,1.09837,R,ugm-3,80.57639,R,ugm-3
11-01-2019,06:00,71.05630,R,ugm-3,28.44942,R,ugm-3,137.40089,R,ugm-3,65.75832,R,ugm-3
11-01-2019,07:00,8.80435,R,ugm-3,21.17730,R,ugm-3,34.67712,R,ugm-3,40.16346,R,ugm-3
11-01-2019,08:00,5.62788,R,ugm-3,21.96816,R,ugm-3,30.59746,R,ugm-3,56.17896,R,ugm-3
11-01-2019,09:00,0.93223,R,ugm-3,10.12965,R,ugm-3,11.55904,R,ugm-3,71.29638,R,ugm-3
11-01-2019,10:00,1.45013,R,ugm-3,19.37778,R,ugm-3,21.60128,R,ugm-3,57.02713,R,ugm-3
11-01-2019,11:00,2.00256,R,ugm-3,12.41124,R,ugm-3,15.48179,R,ugm-3,62.91444,R,ugm-3
11-01-2019,12:00,1.55371,R,ugm-3,11.21655,R,ugm-3,13.59887,R,ugm-3,62.16606,R,ugm-3
11-01-2019,13:00,2.03709,R,ugm-3,15.81032,R,ugm-3,18.93381,R,ugm-3,59.22240,R,ugm-3
11-01-2019,14:00,1.48466,R,ugm-3,8.02732,R,ugm-3,10.30376,R,ugm-3,65.45896,R,ugm-3
11-01-2019,15:00,0.89770,R,ugm-3,3.90619,R,ugm-3,5.28264,R,ugm-3,69.00133,R,ugm-3
11-01-2019,16:00,1.10486,R,ugm-3,5.68068,R,ugm-3,7.37477,R,ugm-3,66.45681,R,ugm-3
11-01-2019,17:00,0.86317,R,ugm-3,5.68514,R,ugm-3,7.00865,R,ugm-3,64.16176,R,ugm-3
11-01-2019,18:00,2.76215,R,ugm-3,12.39723,R,ugm-3,16.63246,R,ugm-3,59.82111,R,ugm-3
11-01-2019,19:00,2.58952,R,ugm-3,10.20367,R,ugm-3,14.17421,R,ugm-3,66.25724,R,ugm-3
11-01-2019,20:00,1.20844,R,ugm-3,5.31264,R,ugm-3,7.16556,R,ugm-3,68.40262,R,ugm-3
11-01-2019,21:00,0.62148,R,ugm-3,2.91752,R,ugm-3,3.87045,R,ugm-3,69.94929,R,ugm-3
11-01-2019,22:00,0.69054,R,ugm-3,2.07939,R,ugm-3,3.13820,R,ugm-3,70.79746,R,ugm-3
11-01-2019,23:00,0.72506,R,ugm-3,1.97415,R,ugm-3,3.08590,R,ugm-3,71.34628,R,ugm-3
11-01-2019,24:00,0.34527,R,ugm-3,0.46436,R,ugm-3,0.99376,R,ugm-3,81.12521,R,ugm-3
12-01-2019,01:00,0.18411,R,ugm-3,0.97243,R,ugm-3,1.25472,R,ugm-3,80.36019,R,ugm-3
12-01-2019,02:00,0.34521,R,ugm-3,0.82998,R,ugm-3,1.35929,R,ugm-3,78.43101,R,ugm-3
12-01-2019,03:00,0.27616,R,ugm-3,0.36076,R,ugm-3,0.78420,R,ugm-3,77.98198,R,ugm-3
12-01-2019,04:00,0.13808,R,ugm-3,0.46792,R,ugm-3,0.67964,R,ugm-3,77.78241,R,ugm-3
12-01-2019,05:00,0.41425,R,ugm-3,0.46272,R,ugm-3,1.09788,R,ugm-3,79.32908,R,ugm-3
12-01-2019,06:00,0.10356,R,ugm-3,0.41629,R,ugm-3,0.57508,R,ugm-3,80.02757,R,ugm-3
12-01-2019,07:00,0.17260,R,ugm-3,0.41499,R,ugm-3,0.67964,R,ugm-3,80.42671,R,ugm-3
12-01-2019,08:00,0.58685,R,ugm-3,1.60963,R,ugm-3,2.50945,R,ugm-3,79.42886,R,ugm-3
12-01-2019,09:00,0.37973,R,ugm-3,1.66581,R,ugm-3,2.24805,R,ugm-3,78.68047,R,ugm-3
12-01-2019,10:00,0.72493,R,ugm-3,3.43683,R,ugm-3,4.54837,R,ugm-3,74.93854,R,ugm-3
12-01-2019,11:00,0.89753,R,ugm-3,5.05426,R,ugm-3,6.43046,R,ugm-3,76.08606,R,ugm-3
12-01-2019,12:00,2.69260,R,ugm-3,9.15057,R,ugm-3,13.27916,R,ugm-3,68.75187,R,ugm-3
12-01-2019,13:00,1.58794,R,ugm-3,6.45282,R,ugm-3,8.88762,R,ugm-3,69.20090,R,ugm-3
12-01-2019,14:00,1.13918,R,ugm-3,5.15427,R,ugm-3,6.90098,R,ugm-3,71.54585,R,ugm-3
12-01-2019,15:00,0.96657,R,ugm-3,3.69368,R,ugm-3,5.17573,R,ugm-3,77.93209,R,ugm-3
12-01-2019,16:00,1.10466,R,ugm-3,3.16827,R,ugm-3,4.86205,R,ugm-3,79.47875,R,ugm-3
12-01-2019,17:00,1.03561,R,ugm-3,3.01273,R,ugm-3,4.60065,R,ugm-3,79.77811,R,ugm-3
12-01-2019,18:00,1.10466,R,ugm-3,3.11599,R,ugm-3,4.80977,R,ugm-3,79.47875,R,ugm-3
12-01-2019,19:00,0.93205,R,ugm-3,5.52413,R,ugm-3,6.95326,R,ugm-3,73.49165,R,ugm-3
12-01-2019,20:00,0.51781,R,ugm-3,3.12705,R,ugm-3,3.92101,R,ugm-3,75.58714,R,ugm-3
12-01-2019,21:00,0.31068,R,ugm-3,3.07867,R,ugm-3,3.55505,R,ugm-3,76.88434,R,ugm-3
12-01-2019,22:00,0.31068,R,ugm-3,2.39903,R,ugm-3,2.87541,R,ugm-3,78.83015,R,ugm-3